Tracking 31029 objects as of 15-Jul-2025
HD Live streaming from Space Station
objects crossing your sky now

DMSP 5D-2 F11 DEB

Track DMSP 5D-2 F11 DEB now!
10-day predictions


NORAD ID: 28309
Int'l Code: 1991-082W
Perigee: 812.7 km
Apogee: 835.2 km
Inclination: 98.7 °
Period: 101.2 minutes
Semi major axis: 7194 km
RCS: 0.0137 m2 (small)
Launch date: November 28, 1991
Source: United States (US)
Launch site: AIR FORCE WESTERN TEST RANGE (AFWTR)

Note: This is SATELLITE DEBRIS
Your satellite tracking list
Your tracking list is empty




NASA's NSSDC Master Catalog

Two Line Element Set (TLE):
1 28309U 91082W   25196.35397615  .00000068  00000-0  49990-4 0  9993
2 28309  98.7310 217.0978 0015638 140.7028 230.5645 14.22542154101659
Source of the keplerian elements: AFSPC